Pula, Croatia

6:28 AM CET on December 13, 2017 (GMT +0100)
Pula

Weather History for LDPL - December, 2017

Change the Weather History Date:

Thursday, December 7, 2017

  Actual Average Record
Temperature  
Mean Temperature 43 °F -  
Max Temperature 54 °F - - ()
Min Temperature 32 °F - - ()
Degree Days  
Heating Degree Days 22    
Moisture  
Dew Point 41 °F    
Average Humidity 89    
Maximum Humidity 100    
Minimum Humidity 62    
Precipitation  
Precipitation 0.16 in - - ()
Sea Level Pressure  
Sea Level Pressure 30.38 in    
Wind  
Wind Speed 4 mph ()    
Max Wind Speed 11 mph    
Max Gust Speed -    
Visibility 4.5 miles    
Events Fog , Rain    
T = Trace of Precipitation, MM = Missing Value Source: Averaged Metar Reports

Daily Weather History Graph

Daily Weather History Graph

Search for Another Location

Airport or City:

Trip Planner

Search our weather history database for the weather conditions in past years. The results will help you decide how hot, cold, wet, or windy it might be!

Date:

Astronomy

Dec. 07, 2017 Rise Set
Actual Time 7:28 AM CET 4:23 PM CET
Civil Twilight 6:54 AM CET 4:56 PM CET
Nautical Twilight 6:18 AM CET 5:33 PM CET
Astronomical Twilight 5:42 AM CET 6:08 PM CET
Moon 8:54 PM CET (12/7) 10:51 AM CET (12/7)
Length of Visible Light 10h 01m
Length of Day
8h 54m
Waning Gibbous, 80% of the Moon is Illuminated
Dec 7
Waning Gibbous
Dec 10
Last Quarter
Dec 18
New
Dec 26
First Quarter
Jan 2
Full

Hourly Weather History & Observations

Time (CET) Temp. Windchill Dew Point Humidity Pressure Visibility Wind Dir Wind Speed Gust Speed Precip Events Conditions
12:00 AM 35.6 °F 31.7 °F 33.8 °F 93% 30.45 in 1.2 mi NE 4.6 mph - N/A   Mist
1:00 AM 38 °F - 37 °F 97% 30.47 in 2 mi ENE 4.5 mph - -   Mist
1:00 AM 37.4 °F 33.8 °F 37.4 °F 100% 30.45 in 1.4 mi ENE 4.6 mph - N/A   Mist
1:30 AM 35.6 °F 31.7 °F 35.6 °F 100% 30.45 in 1.5 mi East 4.6 mph - N/A   Mist
2:00 AM 35.6 °F 32.8 °F 35.6 °F 100% 30.45 in 1.1 mi ENE 3.5 mph - N/A   Mist
2:30 AM 32.0 °F 28.7 °F 32.0 °F 100% 30.45 in 1.6 mi East 3.5 mph - N/A   Mist
3:00 AM 35.6 °F 30.7 °F 35.6 °F 100% 30.45 in 1.5 mi East 5.8 mph - N/A Rain Light Rain Showers
3:30 AM 41.0 °F 36.4 °F 41.0 °F 100% 30.42 in 2.8 mi East 6.9 mph - N/A   Mist
4:00 AM 42 °F - 41 °F 95% 30.45 in 2 mi ENE 6.7 mph - -   Mist
4:00 AM 41.0 °F 37.1 °F 41.0 °F 100% 30.42 in - East 5.8 mph - N/A Rain Light Rain Showers
4:30 AM 39.2 °F 35.0 °F 37.4 °F 93% 30.42 in 1.7 mi ENE 5.8 mph - N/A   Mist
5:00 AM 37.4 °F 33.8 °F 35.6 °F 93% 30.42 in 1.1 mi ENE 4.6 mph - N/A Rain Light Rain Showers
5:30 AM 39.2 °F 35.9 °F 37.4 °F 93% 30.42 in 1.7 mi ENE 4.6 mph - N/A Rain Light Rain Showers
6:00 AM 33.8 °F 30.8 °F 33.8 °F 100% 30.42 in 0.9 mi ENE 3.5 mph - N/A Fog Patches of Fog
6:30 AM 33.8 °F 29.6 °F 33.8 °F 100% 30.42 in 0.7 mi ENE 4.6 mph - N/A Fog Patches of Fog
7:00 AM 33.8 °F 29.6 °F 33.8 °F 100% 30.42 in 0.4 mi East 4.6 mph - N/A Fog Fog
7:30 AM 37.4 °F 34.9 °F 35.6 °F 93% 30.42 in 0.5 mi ENE 3.5 mph - N/A Fog Fog
8:00 AM 35.6 °F 32.8 °F 35.6 °F 100% 30.42 in 0.4 mi ENE 3.5 mph - N/A Fog Fog
8:30 AM 37.4 °F 33.8 °F 37.4 °F 100% 30.42 in 0.5 mi East 4.6 mph - N/A   Partly Cloudy
9:00 AM 44.6 °F - 42.8 °F 93% 30.42 in 0.6 mi ENE 2.3 mph - N/A   Partly Cloudy
9:30 AM 46.4 °F 45.2 °F 44.6 °F 93% 30.42 in 1.9 mi East 3.5 mph - N/A   Partly Cloudy
10:00 AM 50 °F - 49 °F 93% 30.45 in 5 mi East 2.2 mph - - Fog Light Fog
10:00 AM 50.0 °F - 48.2 °F 94% 30.42 in 5.0 mi Variable 1.2 mph - N/A   Unknown
10:30 AM 51.8 °F - 46.4 °F 82% 30.42 in 5.6 mi Variable 2.3 mph - N/A   Unknown
11:00 AM 51.8 °F - 44.6 °F 76% 30.42 in 6.2 mi West 3.5 mph - N/A   Partly Cloudy
11:30 AM 51.8 °F - 44.6 °F 76% 30.42 in 6.2 mi SW 4.6 mph - N/A   Partly Cloudy
12:00 PM 51.8 °F - 44.6 °F 76% 30.42 in 6.2 mi WSW 4.6 mph - N/A   Scattered Clouds
12:30 PM 53.6 °F - 46.4 °F 77% 30.39 in 6.2 mi WSW 3.5 mph - N/A   Scattered Clouds
1:00 PM 53 °F - 44 °F 62% 30.40 in 12 mi West 6.7 mph - -   Partly Cloudy
1:00 PM 53.6 °F - 44.6 °F 72% 30.39 in 6.2 mi West 6.9 mph - N/A   Scattered Clouds
1:30 PM 51.8 °F - 42.8 °F 71% 30.39 in 6.2 mi SW 3.5 mph - N/A   Scattered Clouds
2:30 PM 51.8 °F - 44.6 °F 76% 30.36 in 6.2 mi SW 6.9 mph - N/A   Scattered Clouds
3:00 PM 53.6 °F - 42.8 °F 67% 30.36 in 6.2 mi Variable 2.3 mph - N/A   Partly Cloudy
3:30 PM 51.8 °F - 44.6 °F 76% 30.36 in 6.2 mi SW 4.6 mph - N/A   Partly Cloudy
4:00 PM 50 °F - 44 °F 72% 30.38 in 9 mi SW 4.5 mph - -   Scattered Clouds
4:00 PM 50.0 °F - 44.6 °F 82% 30.36 in - SW 3.5 mph - N/A   Clear
4:30 PM 46.4 °F - 42.8 °F 87% 30.36 in - Calm Calm - N/A   Clear
5:00 PM 42.8 °F - 41.0 °F 93% 30.36 in 6.2 mi East 2.3 mph - N/A   Scattered Clouds
5:30 PM 44.6 °F 43.1 °F 42.8 °F 93% 30.36 in 6.2 mi East 3.5 mph - N/A   Scattered Clouds
6:00 PM 41.0 °F 39.0 °F 39.2 °F 93% 30.33 in 6.2 mi East 3.5 mph - N/A   Mostly Cloudy
6:30 PM 42.8 °F 41.1 °F 41.0 °F 93% 30.33 in 6.2 mi SE 3.5 mph - N/A   Mostly Cloudy
7:00 PM 43 °F - 42 °F 93% 30.36 in 9 mi East 4.5 mph - -   Mostly Cloudy
7:00 PM 42.8 °F 41.1 °F 41.0 °F 93% 30.33 in 6.2 mi East 3.5 mph - N/A   Mostly Cloudy
7:30 PM 46.4 °F 45.2 °F 44.6 °F 93% 30.33 in 6.2 mi SE 3.5 mph - N/A   Mostly Cloudy
8:00 PM 48.2 °F - 44.6 °F 87% 30.33 in 6.2 mi ESE 4.6 mph - N/A   Mostly Cloudy
8:30 PM 50.0 °F - 44.6 °F 82% 30.30 in 6.2 mi ESE 5.8 mph - N/A   Mostly Cloudy
9:00 PM 48.2 °F - 44.6 °F 87% 30.30 in 6.2 mi South 3.5 mph - N/A   Mostly Cloudy
9:30 PM 48.2 °F - 42.8 °F 82% 30.30 in 6.2 mi SSW 3.5 mph - N/A   Scattered Clouds
10:00 PM 52 °F - 45 °F 69% 29.95 in 12 mi ENE 11.2 mph - - Rain Light Rain
10:00 PM 46.4 °F - 42.8 °F 87% 30.30 in 6.2 mi Variable 1.2 mph - N/A   Scattered Clouds
10:30 PM 46.4 °F - 44.6 °F 93% 30.27 in 6.2 mi Variable 1.2 mph - N/A   Scattered Clouds
11:00 PM 46.4 °F - 42.8 °F 87% 30.27 in 6.2 mi Variable 1.2 mph - N/A   Scattered Clouds
11:30 PM 48.2 °F - 44.6 °F 87% 30.27 in 6.2 mi Variable 2.3 mph - N/A   Partly Cloudy